Location: Chervonnoye
(48.6000°N, 34.4000°E)
Time: 22:56:31
(UTC+00:00)

PEGASUS DEB - Visible Passes

Search period start: 24 June 2021 00:00
Search period end: 04 July 2021 00:00
Orbit: 588 x 1197 km, 81.5° (Epoch: 24 June)

Date Brightness Start Highest point End Pass type
(mag) Time Alt. Az. Time Alt. Az. Time Alt. Az.
24 Jun ? 21:45:03 10° NNE 21:48:10 20° ENE 21:51:23 10° ESE visible
24 Jun ? 23:28:08 10° NNW 23:32:07 42° W 23:34:29 22° SSW visible
25 Jun ? 21:45:16 10° NNE 21:48:41 23° ENE 21:51:51 12° ESE visible
25 Jun ? 23:28:40 10° NNW 23:32:32 35° W 23:34:43 22° SW visible
26 Jun ? 21:45:32 10° N 21:49:11 27° ENE 21:52:06 15° ESE visible
26 Jun ? 23:29:13 10° NNW 23:32:56 30° W 23:34:59 21° SW visible
27 Jun ? 21:45:49 10° N 21:49:41 32° ENE 21:52:24 18° SE visible
27 Jun ? 23:29:47 10° NW 23:33:21 26° W 23:35:16 19° SW visible
28 Jun ? 21:46:08 10° N 21:50:10 38° ENE 21:52:41 21° SE visible
28 Jun ? 23:30:23 10° NW 23:33:45 22° W 23:35:34 17° WSW visible
29 Jun ? 21:46:29 10° N 21:50:38 46° ENE 21:53:00 25° SE visible
29 Jun ? 23:31:02 10° NW 23:34:08 19° W 23:35:54 16° WSW visible
30 Jun ? 21:46:50 10° N 21:51:06 55° ENE 21:53:21 28° SE visible
30 Jun ? 23:31:45 10° NW 23:34:31 16° W 23:36:14 14° WSW visible
01 Jul ? 21:47:11 10° N 21:51:33 66° ENE 21:53:42 32° SSE visible
01 Jul ? 23:32:33 10° NW 23:34:53 14° W 23:36:35 12° WSW visible
02 Jul ? 21:47:35 10° N 21:52:01 79° E 21:54:04 34° SSE visible
02 Jul ? 23:33:32 10° WNW 23:35:16 12° W 23:36:57 10° WSW visible
03 Jul ? 20:06:20 10° NE 20:08:09 12° ENE 20:10:01 10° E visible
03 Jul ? 21:47:59 10° NNW 21:52:27 87° W 21:54:28 36° S visible
03 Jul ? 23:35:06 10° WNW 23:35:38 10° W 23:36:10 10° W visible
